Weather History for Columbus, GA

Change the Weather History Date:

Sunday, August 25, 2013

  Actual Average Record
Temperature  
Mean Temperature 79 °F 81 °F  
Max Temperature 86 °F 91 °F 99 °F (1989)
Min Temperature 71 °F 72 °F 58 °F (1969)
Degree Days  
Heating Degree Days 0 0  
Month to date heating degree days 0 0  
Since 1 June heating degree days 0 0  
Since 1 July heating degree days 0 0  
Cooling Degree Days 14 16  
Month to date cooling degree days 389 427  
Year to date cooling degree days 1688 1775  
Since 1 June cooling degree days 1325 1417  
Growing Degree Days 28 (Base 50)    
Moisture  
Dew Point 64 °F    
Average Humidity 64    
Maximum Humidity 84    
Minimum Humidity 44    
Precipitation  
Precipitation 0.00 in 0.12 in 1.40 in (1991)
Month to date precipitation 8.59 3.11  
Year to date precipitation 50.33 32.08  
Sea Level Pressure  
Sea Level Pressure 30.23 in    
Wind  
Wind Speed 9 mph (East)    
Max Wind Speed 17 mph    
Max Gust Speed 23 mph    
Visibility 10 miles    
Events      
T = Trace of Precipitation, MM = Missing Value Source: NWS Daily Summary

Daily Weather History Graph

Daily Weather History Graph

Search for Another Location

Airport:

Trip Planner

Search our weather history database for the weather conditions in past years. The results will help you decide how hot, cold, wet, or windy it might be!

Date:

Astronomy

Aug. 25, 2013 Rise Set
Actual Time 7:10 AM EDT 8:12 PM EDT
Civil Twilight 6:44 AM EDT 8:37 PM EDT
Nautical Twilight 6:14 AM EDT 9:07 PM EDT
Astronomical Twilight 5:43 AM EDT 9:38 PM EDT
Moon 11:04 PM EDT (8/25) 11:51 AM EDT (8/25)
Length of Visible Light 13h 53m
Length of Day
13h 02m
Waning Gibbous, 76% of the Moon is Illuminated
Aug 25
Waning Gibbous
Aug 28
Last Quarter
Sep 5
New
Sep 12
First Quarter
Sep 19
Full

Hourly Weather History & Observations

Time (EDT) Temp. Heat Index Dew Point Humidity Pressure Visibility Wind Dir Wind Speed Gust Speed Precip Events Conditions
12:04 AM 75.2 °F - 66.2 °F 73% 30.21 in 10.0 mi East 9.2 mph - N/A   Mostly Cloudy
12:51 AM 75.0 °F - 68.0 °F 79% 30.20 in 10.0 mi East 8.1 mph - N/A   Overcast
12:59 AM 75.2 °F - 68.0 °F 78% 30.22 in 10.0 mi East 5.8 mph - N/A   Overcast
1:51 AM 75.0 °F - 66.9 °F 76% 30.20 in 10.0 mi East 6.9 mph - N/A   Scattered Clouds
2:51 AM 73.9 °F - 66.9 °F 79% 30.21 in 9.0 mi East 8.1 mph - N/A   Scattered Clouds
3:51 AM 73.9 °F - 66.0 °F 76% 30.21 in 10.0 mi East 9.2 mph - N/A   Overcast
4:51 AM 73.0 °F - 66.0 °F 79% 30.21 in 10.0 mi East 8.1 mph - N/A   Overcast
5:51 AM 73.0 °F - 66.0 °F 79% 30.22 in 10.0 mi East 8.1 mph - N/A   Clear
6:51 AM 71.1 °F - 66.0 °F 84% 30.23 in 9.0 mi ESE 6.9 mph - N/A   Clear
7:51 AM 71.1 °F - 66.0 °F 84% 30.25 in 7.0 mi East 9.2 mph - N/A   Clear
8:51 AM 73.9 °F - 64.9 °F 73% 30.27 in 9.0 mi East 13.8 mph - N/A   Clear
9:51 AM 75.9 °F - 64.9 °F 69% 30.28 in 10.0 mi East 11.5 mph - N/A   Clear
10:51 AM 79.0 °F - 64.0 °F 60% 30.30 in 10.0 mi East 12.7 mph - N/A   Clear
11:51 AM 82.0 °F 83.4 °F 64.0 °F 54% 30.29 in 10.0 mi East 17.3 mph - N/A   Partly Cloudy
12:51 PM 82.9 °F 84.0 °F 63.0 °F 51% 30.27 in 10.0 mi East 11.5 mph - N/A   Clear
1:51 PM 84.0 °F 84.5 °F 62.1 °F 47% 30.25 in 10.0 mi East 15.0 mph 18.4 mph N/A   Scattered Clouds
2:51 PM 84.9 °F 85.4 °F 62.1 °F 46% 30.22 in 10.0 mi East 10.4 mph 21.9 mph N/A   Partly Cloudy
3:51 PM 84.9 °F 85.0 °F 61.0 °F 44% 30.20 in 10.0 mi SE 11.5 mph 17.3 mph N/A   Clear
4:51 PM 84.9 °F 85.0 °F 61.0 °F 44% 30.20 in 10.0 mi East 10.4 mph 18.4 mph N/A   Partly Cloudy
5:51 PM 84.9 °F 85.4 °F 62.1 °F 46% 30.21 in 10.0 mi ENE 9.2 mph - N/A   Scattered Clouds
6:51 PM 82.9 °F 83.3 °F 61.0 °F 47% 30.21 in 10.0 mi East 8.1 mph - N/A   Partly Cloudy
7:51 PM 81.0 °F 82.2 °F 63.0 °F 54% 30.22 in 10.0 mi East 8.1 mph - N/A   Partly Cloudy
8:51 PM 78.1 °F - 64.0 °F 62% 30.23 in 10.0 mi East 3.5 mph - N/A   Clear
9:51 PM 75.9 °F - 63.0 °F 64% 30.25 in 10.0 mi ENE 4.6 mph - N/A   Clear
10:51 PM 73.9 °F - 62.1 °F 66% 30.26 in 10.0 mi East 5.8 mph - N/A   Clear
11:51 PM 73.0 °F - 61.0 °F 66% 30.26 in 10.0 mi East 5.8 mph - N/A   Clear